Location: Poughquag
(41.6090°N, 73.6820°W)
Time: 14:59:33
(UTC-04:00)

Courier 1B - Pass Details

Date: 05 June 2020
Orbit: 962 x 1209 km, 28.3° (Epoch: 05 July)

Event Time Altitude Azimuth Distance (km) Brightness Sun altitude
Exits shadow 03:00:30 13° 162° (SSE) 2,900 9.6 -19.4°
Drops below altitude 10° 03:01:36 10° 155° (SSE) 3,132 9.8 -19.2°
Sets 03:05:20 0° 140° (SE) 4,101 10.6 -18.9°
